Date String (YYYY-MM-DD hh:mm:ss) UTC,Instrument flags,absolute air pressure of the measurement (hPa),sample flow rate (lpm),inlet stack bypass flow (lpm),air temperature of the measurement (°C),ambient temperature measured by the external sensor (°C),aerosol sample conditioner tube jacket temperature (°C),OPC LED temperature (°C),internal box temperature (°C),relative humidity of the measurement (%),span deviation,mass concentration of particles derived from Lorenz-Mie calculation of OPC scattering (μg/m³),mass concentration of particles derived from Lorenz-Mie calculation of OPC scattering (μg/m³),mass concentration of particles derived from Lorenz-Mie calculation of OPC scattering (μg/m³)
DateTimeUTC,F1_M11,P_M11,Q1_M11,Q2_M11,T1_M11,T2_M11,T3_M11,T4_M11,T5_M11,U1_M11,ZSPAN_M11,X0_M11,X2_M11,X1_M11
2023-11-26 21:00:00,SystemResetWarning,0831.2,5.01,000.00,023.9,023.2,000.0,032.0,025.3,8.0,0000.0,0005.09,0003.52,0003.34
2023-11-26 21:01:00,SystemResetWarning,0831.2,5.00,000.00,024.0,023.2,000.0,032.0,025.3,8.1,0000.0,0005.08,0003.52,0003.35
2023-11-26 21:02:00,SystemResetWarning,0831.2,4.99,000.00,024.0,023.2,000.0,032.0,025.3,8.1,0000.0,0004.83,0003.54,0003.36
2023-11-26 21:03:00,SystemResetWarning,0831.1,5.00,000.00,024.0,023.2,000.0,032.1,025.4,8.3,0000.0,0004.79,0003.55,0003.39
2023-11-26 21:04:00,SystemResetWarning,0831.1,4.99,000.00,024.0,023.2,000.0,032.1,025.4,8.3,0000.0,0004.99,0003.60,0003.42
2023-11-26 21:05:00,SystemResetWarning,0831.1,5.00,000.00,024.0,023.3,000.0,032.1,025.4,8.6,0000.0,0005.10,0003.64,0003.45
2023-11-26 21:06:00,SystemResetWarning,0831.2,5.00,000.00,024.0,023.3,000.0,032.1,025.5,8.7,0000.0,0005.00,0003.64,0003.47
2023-11-26 21:07:00,SystemResetWarning,0831.2,5.01,000.00,024.0,023.3,000.0,032.1,025.5,8.4,0000.0,0005.08,0003.67,0003.49
2023-11-26 21:08:00,SystemResetWarning,0831.2,5.00,000.00,024.1,023.3,000.0,032.1,025.5,8.7,0000.0,0005.12,0003.70,0003.52
2023-11-26 21:09:00,SystemResetWarning,0831.2,5.00,000.00,024.1,023.3,000.0,032.2,025.5,8.7,0000.0,0005.33,0003.75,0003.54
2023-11-26 21:10:00,SystemResetWarning,0831.1,5.00,000.00,024.1,023.3,000.0,032.2,025.5,8.8,0000.0,0006.54,0003.79,0003.57
2023-11-26 21:11:00,SystemResetWarning,0831.2,4.98,000.00,024.1,023.3,000.0,032.2,025.5,9.2,0000.0,0006.66,0003.82,0003.61
2023-11-26 21:12:00,SystemResetWarning,0831.1,4.99,000.00,024.1,023.3,000.0,032.2,025.5,9.4,0000.0,0006.87,0003.90,0003.67
2023-11-26 21:13:00,SystemResetWarning,0831.2,5.01,000.00,024.1,023.4,000.0,032.2,025.5,9.3,0000.0,0007.05,0003.95,0003.72
2023-11-26 21:14:00,SystemResetWarning,0831.1,5.01,000.00,024.2,023.4,000.0,032.2,025.5,9.1,0000.0,0007.62,0004.03,0003.76
2023-11-26 21:15:00,SystemResetWarning,0831.1,4.99,000.00,024.2,023.4,000.0,032.2,025.6,9.2,0000.0,0008.02,0004.11,0003.82
2023-11-26 21:16:00,SystemResetWarning,0831.2,4.99,000.00,024.2,023.4,000.0,032.3,025.5,9.3,0000.0,0008.16,0004.17,0003.89
2023-11-26 21:17:00,SystemResetWarning,0831.2,5.00,000.00,024.2,023.4,000.0,032.3,025.5,9.4,0000.0,0008.27,0004.23,0003.95
2023-11-26 21:18:00,SystemResetWarning,0831.1,5.01,000.00,024.2,023.4,000.0,032.3,025.6,9.3,0000.0,0008.34,0004.30,0004.02
2023-11-26 21:19:00,SystemResetWarning,0831.1,5.01,000.00,024.2,023.4,000.0,032.3,025.6,9.3,0000.0,0008.44,0004.39,0004.08
2023-11-26 21:20:00,SystemResetWarning,0831.1,4.99,000.00,024.2,023.4,000.0,032.3,025.6,9.2,0000.0,0008.43,0004.46,0004.15
2023-11-26 21:21:00,SystemResetWarning,0831.1,4.99,000.00,024.2,023.4,000.0,032.3,025.6,9.3,0000.0,0007.95,0004.52,0004.21
2023-11-26 21:22:00,SystemResetWarning,0831.0,5.00,000.00,024.3,023.5,000.0,032.4,025.6,9.3,0000.0,0007.82,0004.56,0004.25
2023-11-26 21:23:00,SystemResetWarning,0831.1,4.99,000.00,024.3,023.5,000.0,032.4,025.6,9.2,0000.0,0007.83,0004.58,0004.27
2023-11-26 21:24:00,SystemResetWarning,0831.1,5.00,000.00,024.3,023.5,000.0,032.4,025.6,9.2,0000.0,0008.12,0004.61,0004.30
2023-11-26 21:25:00,SystemResetWarning,0831.1,5.01,000.00,024.3,023.5,000.0,032.4,025.6,9.0,0000.0,0008.03,0004.63,0004.34
2023-11-26 21:26:00,SystemResetWarning,0831.1,5.00,000.00,024.3,023.5,000.0,032.4,025.6,9.3,0000.0,0007.54,0004.62,0004.36
2023-11-26 21:27:00,SystemResetWarning,0831.1,5.00,000.00,024.3,023.5,000.0,032.4,025.7,9.1,0000.0,0007.46,0004.63,0004.36
2023-11-26 21:28:00,SystemResetWarning,0831.1,5.00,000.00,024.3,023.5,000.0,032.4,025.6,9.4,0000.0,0008.12,0004.63,0004.36
2023-11-26 21:29:00,SystemResetWarning,0831.0,5.00,000.00,024.3,023.5,000.0,032.4,025.7,9.2,0000.0,0008.06,0004.61,0004.35
2023-11-26 21:30:00,SystemResetWarning,0831.1,4.99,000.00,024.3,023.5,000.0,032.5,025.7,9.1,0000.0,0008.03,0004.59,0004.35
2023-11-26 21:31:00,SystemResetWarning,0831.1,5.00,000.00,024.4,023.5,000.0,032.5,025.7,9.3,0000.0,0007.97,0004.57,0004.34
2023-11-26 21:32:00,SystemResetWarning,0831.1,4.99,000.00,024.4,023.5,000.0,032.5,025.7,9.2,0000.0,0007.95,0004.55,0004.34
2023-11-26 21:33:00,SystemResetWarning,0831.0,4.99,000.00,024.4,023.5,000.0,032.5,025.7,9.2,0000.0,0007.97,0004.56,0004.33
2023-11-26 21:34:00,SystemResetWarning,0831.0,5.00,000.00,024.4,023.5,000.0,032.5,025.7,9.3,0000.0,0008.10,0004.57,0004.34
2023-11-26 21:35:00,SystemResetWarning,0830.9,5.00,000.00,024.4,023.5,000.0,032.5,025.7,9.3,0000.0,0007.99,0004.57,0004.35
2023-11-26 21:36:00,SystemResetWarning,0830.9,5.00,000.00,024.4,023.5,000.0,032.5,025.7,9.4,0000.0,0007.69,0004.55,0004.34
2023-11-26 21:37:00,SystemResetWarning,0830.9,5.01,000.00,024.4,023.6,000.0,032.5,025.7,9.4,0000.0,0007.67,0004.55,0004.34
2023-11-26 21:38:00,SystemResetWarning,0831.0,4.99,000.00,024.4,023.6,000.0,032.6,025.7,9.5,0000.0,0007.63,0004.55,0004.34
2023-11-26 21:39:00,SystemResetWarning,0831.0,4.99,000.00,024.4,023.6,000.0,032.6,025.7,9.5,0000.0,0006.97,0004.56,0004.36
2023-11-26 21:40:00,SystemResetWarning,0831.1,4.99,000.00,024.4,023.6,000.0,032.6,025.8,9.6,0000.0,0007.50,0004.59,0004.39
2023-11-26 21:41:00,SystemResetWarning,0831.1,5.01,000.00,024.5,023.6,000.0,032.6,025.8,9.5,0000.0,0007.60,0004.60,0004.40
2023-11-26 21:42:00,SystemResetWarning,0831.1,5.01,000.00,024.5,023.6,000.0,032.6,025.8,9.5,0000.0,0007.77,0004.67,0004.45
2023-11-26 21:43:00,SystemResetWarning,0831.1,5.01,000.00,024.5,023.6,000.0,032.6,025.9,9.6,0000.0,0007.88,0004.74,0004.51
2023-11-26 21:44:00,SystemResetWarning,0831.1,4.99,000.00,024.5,023.6,000.0,032.6,025.9,9.7,0000.0,0007.98,0004.80,0004.55
2023-11-26 21:45:00,SystemResetWarning,0831.0,4.99,000.00,024.5,023.6,000.0,032.6,025.9,9.6,0000.0,0007.93,0004.83,0004.58
2023-11-26 21:46:00,SystemResetWarning,0831.0,5.00,000.00,024.5,023.6,000.0,032.6,025.9,9.3,0000.0,0007.89,0004.88,0004.61
2023-11-26 21:47:00,SystemResetWarning,0830.9,5.01,000.00,024.5,023.6,000.0,032.6,025.9,9.3,0000.0,0007.98,0004.94,0004.66
2023-11-26 21:48:00,SystemResetWarning,0830.9,5.01,000.00,024.5,023.6,000.0,032.6,025.9,9.2,0000.0,0008.07,0004.98,0004.70
2023-11-26 21:49:00,SystemResetWarning,0831.0,5.00,000.00,024.5,023.7,000.0,032.7,025.9,9.2,0000.0,0008.11,0005.01,0004.74
2023-11-26 21:50:00,SystemResetWarning,0831.0,4.99,000.00,024.5,023.7,000.0,032.7,026.0,9.3,0000.0,0008.09,0005.05,0004.76
2023-11-26 21:51:00,SystemResetWarning,0831.0,4.99,000.00,024.6,023.7,000.0,032.7,025.9,9.2,0000.0,0007.76,0005.06,0004.77
2023-11-26 21:52:00,SystemResetWarning,0830.9,5.00,000.00,024.6,023.7,000.0,032.7,025.9,9.2,0000.0,0007.95,0005.09,0004.80
2023-11-26 21:53:00,SystemResetWarning,0830.9,5.01,000.00,024.6,023.7,000.0,032.7,026.0,9.1,0000.0,0008.16,0005.08,0004.80
2023-11-26 21:54:00,SystemResetWarning,0830.9,5.01,000.00,024.6,023.7,000.0,032.7,026.0,9.2,0000.0,0008.14,0005.08,0004.81
2023-11-26 21:55:00,SystemResetWarning,0830.9,5.01,000.00,024.6,023.7,000.0,032.7,026.0,9.3,0000.0,0008.64,0005.09,0004.82
2023-11-26 21:56:00,SystemResetWarning,0831.0,5.00,000.00,024.6,023.7,000.0,032.7,026.0,9.2,0000.0,0008.85,0005.11,0004.85
2023-11-26 21:57:00,SystemResetWarning,0831.0,5.00,000.00,024.6,023.7,000.0,032.7,026.0,8.9,0000.0,0008.84,0005.12,0004.87
2023-11-26 21:58:00,SystemResetWarning,0831.0,5.00,000.00,024.6,023.7,000.0,032.7,026.0,9.0,0000.0,0008.85,0005.13,0004.89
2023-11-26 21:59:00,SystemResetWarning,0831.1,5.00,000.00,024.6,023.7,000.0,032.8,026.0,9.2,0000.0,0008.83,0005.15,0004.92
